Howell, MI

10:32 PM EST on December 10, 2016 (GMT -0500)
Livingston County

Weather History for KOZW - March, 2012

Change the Weather History Date:

Saturday, March 3, 2012

  Actual Average Record
Temperature  
Mean Temperature 33 °F -  
Max Temperature 36 °F 36 °F 51 °F (2008)
Min Temperature 30 °F 21 °F -9 °F (2003)
Degree Days  
Heating Degree Days 32    
Moisture  
Dew Point 27 °F    
Average Humidity 76    
Maximum Humidity 90    
Minimum Humidity 64    
Precipitation  
Precipitation 0.00 in - - ()
Sea Level Pressure  
Sea Level Pressure 29.50 in    
Wind  
Wind Speed 23 mph (WSW)    
Max Wind Speed 33 mph    
Max Gust Speed 45 mph    
Visibility 9 miles    
Events Snow    
Averages and records for this station are not official NWS values.
T = Trace of Precipitation, MM = Missing Value Source: NWS Daily Summary

Daily Weather History Graph

Daily Weather History Graph

Search for Another Location

Airport or City:

Trip Planner

Search our weather history database for the weather conditions in past years. The results will help you decide how hot, cold, wet, or windy it might be!

Date:

Astronomy

Mar. 03, 2012 Rise Set
Actual Time 7:07 AM EST 6:28 PM EST
Civil Twilight 6:39 AM EST 6:56 PM EST
Nautical Twilight 6:06 AM EST 7:29 PM EST
Astronomical Twilight 5:33 AM EST 8:02 PM EST
Moon 1:32 PM EST (3/3) 3:49 AM EST (3/3)
Length of Visible Light 12h 17m
Length of Day
11h 21m
Waxing Gibbous, 75% of the Moon is Illuminated
Mar 3
Waxing Gibbous
Mar 8
Full
Mar 14
Last Quarter
Mar 22
New
Mar 30
First Quarter

Hourly Weather History & Observations

Time (EST) Temp. Windchill Dew Point Humidity Pressure Visibility Wind Dir Wind Speed Gust Speed Precip Events Conditions
12:14 AM 36.5 °F 23.7 °F 32.0 °F 84% 29.20 in 10.0 mi WSW 29.9 mph 40.3 mph N/A   Overcast
12:55 AM 35.1 °F 22.5 °F 32.0 °F 89% 29.23 in 4.0 mi WSW 26.5 mph 43.7 mph N/A   Overcast
1:14 AM 35.1 °F 21.2 °F 32.0 °F 89% 29.24 in 5.0 mi WSW 33.4 mph 42.6 mph N/A   Overcast
1:35 AM 35.2 °F 22.7 °F 32.0 °F 88% 29.26 in 7.0 mi West 26.5 mph 42.6 mph N/A   Overcast
1:55 AM 35.1 °F 22.5 °F 32.0 °F 89% 29.27 in 7.0 mi West 26.5 mph 35.7 mph N/A   Overcast
2:15 AM 35.6 °F 22.5 °F 30.9 °F 83% 29.28 in 10.0 mi West 29.9 mph 44.9 mph N/A   Overcast
2:34 AM 35.2 °F 22.7 °F 31.1 °F 85% 29.30 in 10.0 mi West 26.5 mph 39.1 mph N/A   Overcast
2:55 AM 35.1 °F 22.2 °F 30.2 °F 82% 29.31 in 10.0 mi West 27.6 mph 40.3 mph N/A   Overcast
3:14 AM 35.1 °F 23.8 °F 30.7 °F 84% 29.31 in 10.0 mi West 20.7 mph 38.0 mph N/A   Overcast
3:35 AM 35.1 °F 23.0 °F 30.6 °F 84% 29.33 in 10.0 mi West 24.2 mph 39.1 mph N/A   Overcast
3:54 AM 35.6 °F 24.2 °F 30.2 °F 81% 29.34 in 10.0 mi West 21.9 mph 32.2 mph N/A   Overcast
4:15 AM 35.6 °F 23.2 °F 29.8 °F 80% 29.35 in 10.0 mi West 26.5 mph 39.1 mph N/A   Overcast
4:34 AM 35.6 °F 23.4 °F 30.7 °F 82% 29.36 in 10.0 mi West 25.3 mph 33.4 mph N/A   Overcast
4:55 AM 36.0 °F 24.4 °F 30.6 °F 81% 29.37 in 10.0 mi West 23.0 mph 29.9 mph N/A   Overcast
5:14 AM 36.0 °F 23.0 °F 30.2 °F 80% 29.38 in 10.0 mi West 29.9 mph 38.0 mph N/A   Overcast
5:35 AM 35.8 °F 24.2 °F 30.0 °F 80% 29.39 in 10.0 mi WSW 23.0 mph 35.7 mph N/A   Overcast
5:54 AM 35.6 °F 24.2 °F 28.9 °F 77% 29.40 in 10.0 mi WSW 21.9 mph 31.1 mph N/A   Overcast
6:15 AM 35.1 °F 23.0 °F 28.4 °F 77% 29.42 in 10.0 mi WSW 24.2 mph 32.2 mph N/A   Overcast
6:34 AM 34.9 °F 23.9 °F 28.4 °F 77% 29.43 in 10.0 mi WSW 19.6 mph 33.4 mph N/A   Overcast
6:54 AM 34.7 °F 24.0 °F 28.4 °F 78% 29.43 in 10.0 mi WSW 18.4 mph 24.2 mph N/A   Overcast
7:15 AM 34.3 °F 23.5 °F 28.2 °F 78% 29.44 in 10.0 mi WSW 18.4 mph 27.6 mph N/A   Overcast
7:54 AM 33.8 °F 22.8 °F 27.5 °F 78% 29.46 in 5.0 mi WSW 18.4 mph 32.2 mph N/A Snow Light Snow
8:15 AM 33.3 °F 22.1 °F 27.5 °F 79% 29.48 in 4.0 mi WSW 18.4 mph 26.5 mph N/A Snow Light Snow
8:34 AM 33.1 °F 21.5 °F 26.1 °F 75% 29.48 in 4.0 mi WSW 19.6 mph 31.1 mph N/A Snow Light Snow
8:55 AM 32.5 °F 20.8 °F 26.6 °F 79% 29.49 in 7.0 mi WSW 19.6 mph 28.8 mph N/A Snow Light Snow
9:14 AM 33.1 °F 20.9 °F 25.7 °F 74% 29.50 in 10.0 mi WSW 21.9 mph 28.8 mph N/A   Overcast
9:35 AM 33.6 °F 22.2 °F 25.7 °F 73% 29.50 in 10.0 mi WSW 19.6 mph 31.1 mph N/A   Overcast
9:55 AM 33.4 °F 21.1 °F 26.1 °F 74% 29.51 in 10.0 mi WSW 23.0 mph 33.4 mph N/A   Overcast
10:14 AM 34.0 °F 21.8 °F 26.2 °F 73% 29.52 in 10.0 mi WSW 23.0 mph 29.9 mph N/A   Overcast
10:34 AM 34.3 °F 23.5 °F 26.1 °F 72% 29.53 in 10.0 mi WSW 18.4 mph 33.4 mph N/A   Overcast
10:54 AM 34.0 °F 21.5 °F 25.3 °F 71% 29.53 in 10.0 mi WSW 24.2 mph 29.9 mph N/A   Overcast
11:15 AM 33.8 °F 23.9 °F 25.7 °F 72% 29.54 in 10.0 mi WSW 15.0 mph 28.8 mph N/A   Overcast
11:34 AM 33.3 °F 22.8 °F 26.4 °F 76% 29.55 in 7.0 mi WSW 16.1 mph 25.3 mph N/A Snow Light Snow
11:54 AM 34.0 °F 24.6 °F 27.1 °F 76% 29.55 in 10.0 mi WSW 13.8 mph 25.3 mph N/A Snow Light Snow
12:15 PM 33.8 °F 22.5 °F 27.0 °F 76% 29.56 in 10.0 mi WSW 19.6 mph 29.9 mph N/A   Overcast
12:34 PM 33.8 °F 23.5 °F 27.5 °F 78% 29.56 in 3.0 mi West 16.1 mph 31.1 mph N/A Snow Light Snow
12:55 PM 32.7 °F 22.5 °F 30.2 °F 90% 29.56 in 1.2 mi WSW 15.0 mph 23.0 mph N/A Snow Light Snow
1:14 PM 34.0 °F 22.4 °F 27.9 °F 78% 29.56 in 10.0 mi West 20.7 mph 28.8 mph N/A   Overcast
1:34 PM 34.7 °F 24.0 °F 26.6 °F 72% 29.56 in 10.0 mi WSW 18.4 mph 31.1 mph N/A   Overcast
1:54 PM 35.4 °F 24.6 °F 27.0 °F 71% 29.56 in 10.0 mi WSW 19.6 mph 31.1 mph N/A   Overcast
2:15 PM 35.1 °F 23.5 °F 26.6 °F 71% 29.56 in 10.0 mi WSW 21.9 mph 32.2 mph N/A   Overcast
2:35 PM 35.1 °F 23.8 °F 25.9 °F 69% 29.57 in 10.0 mi WSW 20.7 mph 31.1 mph N/A   Overcast
2:54 PM 35.1 °F 23.8 °F 25.0 °F 67% 29.57 in 10.0 mi West 20.7 mph 32.2 mph N/A   Mostly Cloudy
3:14 PM 34.3 °F 23.2 °F 24.8 °F 68% 29.58 in 10.0 mi WSW 19.6 mph 29.9 mph N/A   Overcast
3:34 PM 34.2 °F 23.3 °F 25.2 °F 70% 29.59 in 10.0 mi WSW 18.4 mph 25.3 mph N/A   Overcast
3:55 PM 32.9 °F 21.3 °F 26.2 °F 76% 29.60 in 10.0 mi West 19.6 mph 26.5 mph N/A   Overcast
4:14 PM 32.9 °F 22.0 °F 25.7 °F 75% 29.60 in 10.0 mi WSW 17.3 mph 24.2 mph N/A   Overcast
4:34 PM 33.1 °F 21.2 °F 24.8 °F 72% 29.60 in 10.0 mi West 20.7 mph 28.8 mph N/A   Overcast
4:54 PM 33.3 °F 21.5 °F 23.9 °F 69% 29.61 in 10.0 mi West 20.7 mph 26.5 mph N/A   Overcast
5:15 PM 32.9 °F 20.7 °F 22.8 °F 66% 29.62 in 10.0 mi West 21.9 mph 28.8 mph N/A   Overcast
5:34 PM 32.9 °F 21.6 °F 22.3 °F 65% 29.63 in 10.0 mi WSW 18.4 mph 25.3 mph N/A   Overcast
5:55 PM 32.7 °F 21.8 °F 22.8 °F 67% 29.64 in 10.0 mi WSW 17.3 mph 25.3 mph N/A   Mostly Cloudy
6:15 PM 32.0 °F 22.1 °F 22.3 °F 67% 29.63 in 10.0 mi WSW 13.8 mph 25.3 mph N/A   Scattered Clouds
6:34 PM 31.6 °F 22.1 °F 22.6 °F 69% 29.65 in 10.0 mi WSW 12.7 mph 21.9 mph N/A   Mostly Cloudy
6:55 PM 31.8 °F 19.3 °F 21.2 °F 65% 29.66 in 10.0 mi West 21.9 mph 27.6 mph N/A   Overcast
7:15 PM 31.8 °F 21.8 °F 21.0 °F 64% 29.66 in 10.0 mi West 13.8 mph 23.0 mph N/A   Overcast
7:34 PM 31.3 °F 20.7 °F 21.2 °F 66% 29.67 in 10.0 mi West 15.0 mph 18.4 mph N/A   Overcast
7:55 PM 30.7 °F 22.0 °F 21.0 °F 67% 29.68 in 10.0 mi West 10.4 mph 21.9 mph N/A   Scattered Clouds
8:14 PM 30.9 °F 20.7 °F 21.2 °F 67% 29.68 in 10.0 mi WSW 13.8 mph 20.7 mph N/A   Mostly Cloudy
8:34 PM 30.9 °F 21.7 °F 22.5 °F 71% 29.68 in 10.0 mi WSW 11.5 mph 17.3 mph N/A   Overcast
8:55 PM 30.7 °F 21.4 °F 23.0 °F 73% 29.68 in 10.0 mi WSW 11.5 mph - N/A   Overcast
9:14 PM 30.6 °F 21.8 °F 23.5 °F 75% 29.68 in 7.0 mi WSW 10.4 mph - N/A Snow Light Snow
9:34 PM 30.0 °F 21.1 °F 25.0 °F 82% 29.69 in 1.2 mi WSW 10.4 mph - N/A Snow Light Snow
9:55 PM 29.3 °F 20.2 °F 26.2 °F 88% 29.69 in 0.5 mi WSW 10.4 mph 16.1 mph N/A Snow Snow
10:14 PM 29.1 °F 21.3 °F 26.6 °F 90% 29.69 in 1.5 mi West 8.1 mph - N/A Snow Light Snow
10:35 PM 29.3 °F 24.3 °F 27.1 °F 92% 29.69 in 4.0 mi West 4.6 mph - N/A Snow Light Snow
10:55 PM 29.3 °F 21.5 °F 27.3 °F 92% 29.69 in 4.0 mi WSW 8.1 mph - N/A Snow Light Snow
11:14 PM 30.0 °F 24.1 °F 27.9 °F 92% 29.70 in 5.0 mi West 5.8 mph - N/A Snow Light Snow
11:35 PM 30.2 °F 23.4 °F 27.7 °F 90% 29.70 in 3.0 mi WNW 6.9 mph - N/A Snow Light Snow
11:55 PM 29.3 °F 20.8 °F 24.1 °F 81% 29.70 in 10.0 mi WNW 9.2 mph - N/A   Overcast